Date String (YYYY-MM-DD hh:mm:ss) UTC,Instrument flags,absolute air pressure of the measurement (hPa),sample flow rate (lpm),inlet stack bypass flow (lpm),air temperature of the measurement (°C),ambient temperature measured by the external sensor (°C),aerosol sample conditioner tube jacket temperature (°C),OPC LED temperature (°C),internal box temperature (°C),relative humidity of the measurement (%),span deviation,mass concentration of particles derived from Lorenz-Mie calculation of OPC scattering (μg/m³),mass concentration of particles derived from Lorenz-Mie calculation of OPC scattering (μg/m³),mass concentration of particles derived from Lorenz-Mie calculation of OPC scattering (μg/m³)
DateTimeUTC,F1_M11,P_M11,Q1_M11,Q2_M11,T1_M11,T2_M11,T3_M11,T4_M11,T5_M11,U1_M11,ZSPAN_M11,X0_M11,X2_M11,X1_M11
2023-11-24 20:00:00,SystemResetWarning,0831.1,5.00,000.00,018.9,018.0,000.0,027.3,020.0,12.3,0000.0,0004.80,0003.34,0002.92
2023-11-24 20:01:00,SystemResetWarning,0831.2,5.01,000.00,018.9,018.0,000.0,027.3,020.0,12.3,0000.0,0004.88,0003.35,0002.93
2023-11-24 20:02:00,SystemResetWarning,0831.2,5.01,000.00,018.9,018.0,000.0,027.3,020.0,12.3,0000.0,0004.90,0003.35,0002.93
2023-11-24 20:03:00,SystemResetWarning,0831.1,4.99,000.00,018.9,018.0,000.0,027.3,020.0,12.3,0000.0,0004.78,0003.33,0002.92
2023-11-24 20:04:00,SystemResetWarning,0831.1,4.99,000.00,018.9,018.0,000.0,027.3,020.0,12.3,0000.0,0004.66,0003.33,0002.94
2023-11-24 20:05:00,SystemResetWarning,0831.1,5.01,000.00,018.8,018.0,000.0,027.2,020.0,12.4,0000.0,0004.52,0003.32,0002.94
2023-11-24 20:06:00,SystemResetWarning,0831.1,5.00,000.00,018.8,017.9,000.0,027.2,020.0,12.4,0000.0,0006.06,0003.34,0002.96
2023-11-24 20:07:00,SystemResetWarning,0831.1,5.01,000.00,018.8,017.9,000.0,027.2,020.0,12.4,0000.0,0006.26,0003.33,0002.97
2023-11-24 20:08:00,SystemResetWarning,0831.1,5.01,000.00,018.8,017.9,000.0,027.2,020.1,12.5,0000.0,0006.07,0003.31,0003.00
2023-11-24 20:09:00,SystemResetWarning,0831.1,5.00,000.00,018.9,018.2,000.0,027.2,020.5,12.4,0000.0,0005.92,0003.29,0003.02
2023-11-24 20:10:00,SystemResetWarning,0831.1,5.00,000.00,019.0,019.0,000.0,027.2,021.0,12.3,0000.0,0005.87,0003.29,0003.06
2023-11-24 20:11:00,SystemResetWarning,0831.1,5.00,000.00,019.2,019.3,000.0,027.3,020.9,12.2,0000.0,0006.24,0003.29,0003.07
2023-11-24 20:12:00,SystemResetWarning,0831.0,4.99,000.00,019.2,019.2,000.0,027.3,020.7,12.2,0000.0,0006.71,0003.30,0003.08
2023-11-24 20:13:00,SystemResetWarning,0831.0,5.00,000.00,019.2,019.1,000.0,027.3,020.5,12.3,0000.0,0006.62,0003.29,0003.10
2023-11-24 20:14:00,SystemResetWarning,0830.9,5.01,000.00,019.2,018.9,000.0,027.3,020.4,12.2,0000.0,0006.66,0003.29,0003.10
2023-11-24 20:15:00,SystemResetWarning,0830.9,5.00,000.00,019.1,018.8,000.0,027.3,020.3,12.1,0000.0,0006.71,0003.28,0003.11
2023-11-24 20:16:00,SystemResetWarning,0830.9,5.01,000.00,019.1,018.7,000.0,027.3,020.3,12.2,0000.0,0006.82,0003.29,0003.10
2023-11-24 20:17:00,SystemResetWarning,0830.9,5.01,000.00,019.1,018.6,000.0,027.3,020.3,12.2,0000.0,0005.69,0003.27,0003.11
2023-11-24 20:18:00,SystemResetWarning,0830.9,5.00,000.00,019.1,018.5,000.0,027.3,020.2,12.2,0000.0,0005.15,0003.30,0003.11
2023-11-24 20:19:00,SystemResetWarning,0830.9,5.00,000.00,019.1,018.4,000.0,027.3,020.1,12.1,0000.0,0005.22,0003.31,0003.11
2023-11-24 20:20:00,SystemResetWarning,0830.9,5.00,000.00,019.0,018.4,000.0,027.3,020.1,12.2,0000.0,0005.35,0003.33,0003.11
2023-11-24 20:21:00,SystemResetWarning,0830.8,5.00,000.00,019.0,018.3,000.0,027.3,020.1,12.2,0000.0,0005.62,0003.34,0003.12
2023-11-24 20:22:00,SystemResetWarning,0830.8,4.99,000.00,019.0,018.3,000.0,027.3,020.1,12.2,0000.0,0005.30,0003.33,0003.11
2023-11-24 20:23:00,SystemResetWarning,0830.9,5.00,000.00,019.0,018.3,000.0,027.3,020.1,12.3,0000.0,0004.68,0003.34,0003.12
2023-11-24 20:24:00,SystemResetWarning,0830.8,5.00,000.00,019.0,018.2,000.0,027.3,020.1,12.3,0000.0,0004.76,0003.36,0003.13
2023-11-24 20:25:00,SystemResetWarning,0830.8,5.00,000.00,019.0,018.2,000.0,027.3,020.1,12.3,0000.0,0004.77,0003.37,0003.14
2023-11-24 20:26:00,SystemResetWarning,0830.8,5.01,000.00,019.0,018.2,000.0,027.3,020.1,12.3,0000.0,0004.80,0003.39,0003.15
2023-11-24 20:27:00,SystemResetWarning,0830.7,5.00,000.00,019.0,018.2,000.0,027.3,020.0,12.3,0000.0,0005.27,0003.40,0003.17
2023-11-24 20:28:00,SystemResetWarning,0830.7,5.00,000.00,018.9,018.1,000.0,027.3,020.0,12.3,0000.0,0005.94,0003.42,0003.17
2023-11-24 20:29:00,SystemResetWarning,0830.7,5.00,000.00,018.9,018.1,000.0,027.3,020.0,12.4,0000.0,0005.91,0003.40,0003.19
2023-11-24 20:30:00,SystemResetWarning,0830.7,4.99,000.00,018.9,018.1,000.0,027.3,020.0,12.4,0000.0,0005.97,0003.41,0003.20
2023-11-24 20:31:00,SystemResetWarning,0830.7,5.00,000.00,018.9,018.1,000.0,027.3,020.1,12.2,0000.0,0005.89,0003.41,0003.20
2023-11-24 20:32:00,SystemResetWarning,0830.6,5.01,000.00,018.9,018.1,000.0,027.3,020.0,12.1,0000.0,0005.74,0003.41,0003.20
2023-11-24 20:33:00,SystemResetWarning,0830.6,5.00,000.00,018.9,018.1,000.0,027.3,020.0,12.1,0000.0,0005.83,0003.42,0003.21
2023-11-24 20:34:00,SystemResetWarning,0830.5,5.00,000.00,018.9,018.0,000.0,027.3,020.0,12.1,0000.0,0005.87,0003.43,0003.22
2023-11-24 20:35:00,SystemResetWarning,0830.7,4.99,000.00,018.9,018.0,000.0,027.3,020.0,12.2,0000.0,0005.83,0003.43,0003.22
2023-11-24 20:36:00,SystemResetWarning,0830.5,4.99,000.00,018.9,018.0,000.0,027.3,020.0,12.2,0000.0,0005.80,0003.43,0003.23
2023-11-24 20:37:00,SystemResetWarning,0830.5,4.99,000.00,018.9,018.0,000.0,027.3,020.0,12.3,0000.0,0005.75,0003.43,0003.24
2023-11-24 20:38:00,SystemResetWarning,0830.5,5.00,000.00,018.8,018.0,000.0,027.3,020.0,12.4,0000.0,0005.58,0003.45,0003.25
2023-11-24 20:39:00,SystemResetWarning,0830.5,5.01,000.00,018.8,017.9,000.0,027.3,020.0,12.5,0000.0,0004.61,0003.45,0003.26
2023-11-24 20:40:00,SystemResetWarning,0830.6,5.01,000.00,018.9,017.9,000.0,027.3,020.0,12.5,0000.0,0004.56,0003.45,0003.26
2023-11-24 20:41:00,SystemResetWarning,0830.5,4.98,000.00,018.8,018.0,000.0,027.2,020.0,12.5,0000.0,0004.46,0003.44,0003.26
2023-11-24 20:42:00,SystemResetWarning,0830.5,5.00,000.00,018.8,017.9,000.0,027.2,020.0,12.5,0000.0,0004.55,0003.46,0003.27
2023-11-24 20:43:00,SystemResetWarning,0830.6,5.00,000.00,018.8,017.9,000.0,027.2,020.0,12.5,0000.0,0004.54,0003.47,0003.29
2023-11-24 20:44:00,SystemResetWarning,0830.5,5.00,000.00,018.8,017.9,000.0,027.2,020.0,12.5,0000.0,0004.98,0003.47,0003.28
2023-11-24 20:45:00,SystemResetWarning,0830.5,5.00,000.00,018.8,018.0,000.0,027.2,020.0,12.5,0000.0,0005.39,0003.47,0003.28
2023-11-24 20:46:00,SystemResetWarning,0830.5,5.00,000.00,018.8,017.9,000.0,027.2,020.0,12.5,0000.0,0005.93,0003.47,0003.28
2023-11-24 20:47:00,SystemResetWarning,0830.4,5.00,000.00,018.8,017.9,000.0,027.2,020.0,12.5,0000.0,0005.93,0003.47,0003.27
2023-11-24 20:48:00,SystemResetWarning,0830.4,4.99,000.00,018.8,018.0,000.0,027.2,020.0,12.6,0000.0,0006.09,0003.48,0003.28
2023-11-24 20:49:00,SystemResetWarning,0830.4,4.99,000.00,018.8,017.9,000.0,027.2,020.0,12.5,0000.0,0006.29,0003.49,0003.27
2023-11-24 20:50:00,SystemResetWarning,0830.4,5.00,000.00,018.8,017.9,000.0,027.2,020.0,12.5,0000.0,0006.52,0003.49,0003.26
2023-11-24 20:51:00,SystemResetWarning,0830.4,5.01,000.00,018.8,017.9,000.0,027.2,020.0,12.5,0000.0,0006.57,0003.50,0003.26
2023-11-24 20:52:00,SystemResetWarning,0830.4,5.00,000.00,018.8,017.9,000.0,027.2,020.0,12.5,0000.0,0006.74,0003.51,0003.25
2023-11-24 20:53:00,SystemResetWarning,0830.4,5.00,000.00,018.8,017.9,000.0,027.2,020.0,12.5,0000.0,0006.72,0003.51,0003.25
2023-11-24 20:54:00,SystemResetWarning,0830.4,5.00,000.00,018.8,017.9,000.0,027.2,020.0,12.6,0000.0,0006.73,0003.50,0003.25
2023-11-24 20:55:00,SystemResetWarning,0830.3,4.99,000.00,018.8,017.9,000.0,027.2,020.0,12.6,0000.0,0006.30,0003.51,0003.26
2023-11-24 20:56:00,SystemResetWarning,0830.3,4.99,000.00,018.8,017.9,000.0,027.2,020.0,12.6,0000.0,0005.96,0003.51,0003.26
2023-11-24 20:57:00,SystemResetWarning,0830.3,5.00,000.00,018.8,017.9,000.0,027.2,020.0,12.5,0000.0,0005.29,0003.50,0003.26
2023-11-24 20:58:00,SystemResetWarning,0830.2,5.00,000.00,018.8,017.9,000.0,027.2,020.0,12.5,0000.0,0005.27,0003.48,0003.26
2023-11-24 20:59:00,SystemResetWarning,0830.3,5.00,000.00,018.8,017.8,000.0,027.2,020.0,12.5,0000.0,0005.22,0003.49,0003.25
